Starlink 11521

operational
NORAD ID: 62597 Int'l Des: 2025-008 Owner: SPXS Country: US Constellation: starlink
LEOCIRCULAR

About Starlink 11521

Description loading...

Live Position

Loading 3D Globe...

Upcoming Passes

Altitude History

Altitude vs Time

uPlot chart will show altitude changes over time

Two-Line Element Set

1 62597U 25008L 25339.12606574 .00371063 00000-0 27691-2 0 9994
2 62597 42.9995 335.9988 0000950 295.2227 64.8542 15.70830415 52412
Epoch: Dec 5, 2025 • Age: 20 hours

Current Status

Altitude 354.9 km
Velocity 7.70 km/s
Sub-Earth Point 23.00°N, 56.82°E
Launch Date Jan 13, 2025
Age 0.8 years
Type internet

Technical Details

Classification Payload
Mass 960.00 kg
Dry Mass 910.00 kg
Total Mass 960.00 kg
Length 0.30 m
Diameter 4.10 m
Span 29.00 m
Shape Box + pan
Manufacturer SPXS
Bus Type Starlink V2MD
Phase Status In Orbit
Owner/State SPXS/US

Large Constellations

Loading constellations...